This demonstration page uses our WeatherBlox Daily Observations layout. Learn more.

Left ArrowRight Arrow

Hourly Observations for August 2, 2018

Temp ( °F °C ) Dew Point ( °F °C ) Humidity (%) Winds ( mph kmh ) Pressure ( in mb ) Visibility ( mi km ) Precip ( " mm )
12:59 am 00:59 Mostly Cloudy 79 26.1 74 23.3 85 85 SSW 10 17 30.15 1021 10 16 0.00 0.00
1:59 am 01:59 Partly Cloudy 78 25.6 74 23.3 87 87 SSW 9 15 30.15 1021 10 16 0.00 0.00
2:59 am 02:59 Mostly Cloudy 77 25 74 23.3 90 90 S 8 13 30.15 1021 10 16 0.00 0.00
3:59 am 03:59 Partly Cloudy with Mist and Fog 77 25 74 23.3 90 90 S 7 11 30.14 1021 5 8 0.00 0.00
4:06 am 04:06 Partly Cloudy with Mist and Fog 77 25 74 23.3 90 90 SSW 7 11 30.15 1021 6 10 0.00 0.00
4:59 am 04:59 Partly Cloudy 77 25 74 23.3 90 90 S 6 9 30.14 1021 9 14 0.00 0.00
5:59 am 05:59 Partly Cloudy 77 25 74 23.3 90 90 SSW 6 9 30.15 1021 9 14 0.00 0.00
6:44 am 06:44 Partly Cloudy 77 25 75 23.9 94 94 VRB 3 6 30.15 1021 8 13 0.00 0.00
6:59 am 06:59 Partly Cloudy 78 25.6 75 23.9 90 90 S 6 9 30.16 1021 8 13 0.00 0.00
7:59 am 07:59 Partly Cloudy 80 26.7 75 23.9 85 85 S 8 13 30.16 1021 9 14 0.00 0.00
8:59 am 08:59 Partly Cloudy 81 27.2 74 23.3 79 79 SSW 12 19 30.16 1022 10 16 0.00 0.00
9:59 am 09:59 Partly Cloudy 83 28.3 73 22.8 72 72 SSW 8 13 30.16 1021 10 16 0.00 0.00
10:59 am 10:59 Partly Cloudy 85 29.4 74 23.3 70 70 S 8 13 30.16 1021 10 16 0.00 0.00
11:59 am 11:59 Partly Cloudy 86 30 72 22.2 63 63 SSW 10 17 30.15 1021 10 16 0.00 0.00
12:36 pm 12:36 Mostly Cloudy with Rain 79 26.1 72 22.2 79 79 SE 10 17 30.15 1021 2 3 0.06 1.52
12:42 pm 12:42 Mostly Cloudy with Thunderstorms 78 25.6 73 22.8 85 85 SSE 14 22 30.15 1021 2 3 0.06 1.52
12:59 pm 12:59 Mostly Cloudy with Thunderstorms 76 24.4 73 22.8 91 91 S 14 22 30.16 1021 2 3 0.07 1.78
1:07 pm 13:07 Mostly Cloudy with Thunderstorms 76 24.4 73 22.8 91 91 S 9 15 30.15 1021 4 6 0.01 0.25
1:59 pm 13:59 Mostly Cloudy 78 25.6 74 23.3 87 87 S 9 15 30.14 1021 10 16 0.01 0.25
2:59 pm 14:59 Mostly Cloudy 79 26.1 74 23.3 85 85 S 8 13 30.13 1020 10 16 0.00 0.00
3:59 pm 15:59 Mostly Cloudy 84 28.9 75 23.9 74 74 S 9 15 30.11 1020 10 16 0.00 0.00
4:59 pm 16:59 Mostly Cloudy with Light Rain 83 28.3 74 23.3 74 74 SW 9 15 30.12 1020 10 16 0.00 0.03
5:08 pm 17:08 Mostly Cloudy with Thunderstorms 83 28.3 75 23.9 77 77 SW 10 17 30.12 1020 10 16 0.00 0.03
5:17 pm 17:17 Mostly Cloudy with Strong Thunderstorms 79 26.1 74 23.3 85 85 S 18 30 30.15 1021 2 2 0.15 3.81
5:23 pm 17:23 Cloudy with Strong Thunderstorms 77 25 74 23.3 90 90 VRB 7 11 30.12 1020 2 2 0.37 9.40
5:30 pm 17:30 Mostly Cloudy with Thunderstorms 77 25 74 23.3 90 90 SW 6 9 30.12 1020 3 5 0.38 9.65
5:59 pm 17:59 Mostly Cloudy with Thunderstorms 76 24.4 73 22.8 91 91 SSW 5 7 30.13 1020 7 11 0.38 9.65
6:59 pm 18:59 Mostly Cloudy with Thunderstorms 78 25.6 74 23.3 87 87 SSW 6 9 30.14 1021 10 16 0.00 0.03
7:52 pm 19:52 Mostly Cloudy 75 23.9 71 21.7 88 88 SW 5 7 30.15 1021 10 16 0.00 0.00
7:59 pm 19:59 Mostly Cloudy 75 23.9 71 21.7 88 88 WSW 3 6 30.15 1021 10 16 0.00 0.00
8:59 pm 20:59 Mostly Cloudy 74 23.3 71 21.7 91 91 S 5 7 30.16 1021 10 16 0.00 0.00
9:59 pm 21:59 Mostly Cloudy 75 23.9 72 22.2 90 90 SSE 5 7 30.18 1022 10 16 0.00 0.00
10:59 pm 22:59 Mostly Cloudy 76 24.4 74 23.3 94 94 S 3 6 30.18 1022 9 14 0.00 0.00
11:59 pm 23:59 Partly Cloudy 76 24.4 73 22.8 91 91 S 3 6 30.17 1022 10 16 0.00 0.00

Powered by AerisWeather